DW5542 Weather Reports


Display with metric or nautical units.
time (UTC)temp
F
wind
direction
speed
MPH
gust
MPH
rain 1hr
in
rain 24hr
in
rain mn
in
humidity
%
barometer
mb
20260901044523 0 0.0 0.0 0.00 0.00 0.00 1016.1
20260901043029 0 0.0 0.0 0.00 0.00 0.00 1016.3
20260901041514 0 0.0 0.0 0.00 0.00 0.00 1016.3
20260901040010 0 0.0 0.0 0.00 0.00 0.00 1015.5
20260901034506 75 105 0.0 0.0 0.00 0.00 0.00 83 1016.3
20260901033003 76 104 0.0 0.0 0.00 0.00 0.00 83 1016.3
20260901031502 76 104 0.0 0.0 0.00 0.00 0.00 84 1016.5
20260901024600 76 107 0.0 0.0 0.00 0.00 0.00 84 1016.5
20260901023058 76 107 0.0 0.0 0.00 0.00 0.00 84 1016.6
20260901021606 76 107 0.0 0.0 0.00 0.00 0.00 85 1016.5
20260901020109 76 107 0.0 0.0 0.00 0.00 0.00 85 1016.8
20260901014554 76 104 0.0 0.0 0.00 0.00 0.00 84 1016.8
20260901013051 77 104 0.0 0.0 0.00 0.00 0.00 84 1016.9
20260901011550 77 104 0.0 0.0 0.00 0.00 0.00 84 1017.1
20260901010049 77 104 0.0 0.0 0.00 0.00 0.00 84 1017.2
20260901004556 77 105 0.0 0.0 0.00 0.00 0.00 83 1017.3
20260901003046 78 103 0.0 0.0 0.00 0.00 0.00 83 1017.4
20260901001543 78 239 0.0 5.0 0.00 0.00 0.00 84 1017.4
20260831234543 78 117 0.0 0.0 0.00 0.00 0.00 83 1017.6
20260831233041 78 117 0.0 0.0 0.00 0.00 0.00 83 1017.6
20260831231549 78 117 0.0 0.0 0.00 0.00 0.00 83 1017.5
20260831230040 78 117 0.0 0.0 0.00 0.00 0.00 83 1017.4
20260831224539 78 117 0.0 0.0 0.00 0.00 0.00 83 1017.5
20260831223042 78 117 0.0 0.0 0.00 0.00 0.00 83 1017.4
20260831221537 78 117 0.0 0.0 0.00 0.00 0.00 83 1017.4
20260831220033 78 117 0.0 0.0 0.00 0.00 0.00 84 1017.3
20260831214532 78 117 0.0 0.0 0.00 0.00 0.00 84 1017.2
20260831213032 78 120 0.0 0.0 0.00 0.00 0.00 83 1017.1
20260831211530 78 108 0.0 0.0 0.00 0.00 0.00 83 1017.1
20260831210033 78 108 0.0 0.0 0.00 0.00 0.00 83 1016.9
20260831204529 78 110 0.0 0.0 0.00 0.00 0.00 83 1016.9
20260831203026 77 108 0.0 0.0 0.00 0.00 0.00 84 1016.6
20260831201528 77 111 0.0 0.0 0.00 0.00 0.00 83 1016.5
20260831200030 77 110 0.0 0.0 0.00 0.00 0.00 83 1016.3
20260831194531 77 108 0.0 0.0 0.00 0.00 0.00 82 1016.0
20260831193022 77 114 0.0 1.0 0.00 0.00 0.00 82 1015.7
20260831191522 78 143 0.0 0.0 0.00 0.00 0.00 82 1015.5
20260831190023 78 128 0.0 0.0 0.00 0.00 0.00 82 1015.4
20260831184521 78 148 0.0 2.0 0.00 0.00 0.00 82 1015.3
20260831183020 79 114 0.0 0.0 0.00 0.00 0.00 80 1015.2
20260831181520 79 131 0.0 1.0 0.00 0.00 0.00 78 1015.1
20260831180019 80 113 0.0 4.0 0.00 0.00 0.00 77 1015.0
20260831174526 81 114 0.0 1.0 0.00 0.00 0.00 75 1014.9
20260831173018 81 122 0.0 1.0 0.00 0.00 0.00 75 1015.0
20260831171517 81 103 0.0 4.0 0.00 0.00 0.00 76 1015.0
20260831170017 81 150 0.0 1.0 0.00 0.00 0.00 76 1014.9
20260831164517 81 103 0.0 2.0 0.00 0.00 0.00 75 1015.0
20260831163025 81 118 0.0 6.0 0.00 0.00 0.00 75 1015.2
20260831161514 81 115 0.0 6.0 0.00 0.00 0.00 75 1015.2
20260831160014 82 129 0.0 4.0 0.00 0.00 0.00 75 1015.2
20260831154515 82 122 0.0 3.0 0.00 0.00 0.00 76 1015.3
20260831153018 82 160 0.0 8.0 0.00 0.00 0.00 76 1015.5
20260831151511 82 179 0.0 8.0 0.00 0.00 0.00 76 1015.5
20260831150015 81 131 0.0 6.0 0.00 0.00 0.00 77 1015.6
20260831144510 82 115 0.0 5.0 0.00 0.00 0.00 76 1015.7
20260831143017 82 152 0.0 9.0 0.00 0.00 0.00 75 1015.7
20260831141529 83 153 3.0 11.0 0.00 0.00 0.00 74 1015.6
20260831140012 82 125 0.0 10.0 0.00 0.00 0.00 75 1015.7
20260831134508 82 115 2.0 14.0 0.00 0.00 0.00 75 1015.8
20260831133008 83 134 5.0 12.0 0.00 0.00 0.00 72 1015.7
20260831131506 83 125 1.0 13.0 0.00 0.00 0.00 73 1015.7
20260831130006 83 103 3.0 16.0 0.00 0.00 0.00 72 1015.7
20260831124504 83 142 4.0 17.0 0.00 0.00 0.00 71 1015.9
20260831123002 84 95 4.0 22.0 0.00 0.00 0.00 70 1016.0
20260831121502 84 125 3.0 12.0 0.00 0.00 0.00 70 1016.0
20260831120100 84 144 1.0 13.0 0.00 0.00 0.00 72 1016.2
20260831120000 83 124 0.0 13.0 0.00 0.00 0.00 72 1016.2
20260831114600 83 108 4.0 16.0 0.00 0.00 0.00 72 1016.3
20260831113105 84 141 1.0 13.0 0.00 0.00 0.00 70 1016.2
20260831111601 83 112 0.0 15.0 0.00 0.00 0.00 73 1016.2
20260831110058 83 158 1.0 16.0 0.00 0.00 0.00 75 1016.4
20260831104557 83 153 0.0 12.0 0.00 0.00 0.00 75 1016.4
20260831103057 83 128 5.0 14.0 0.00 0.00 0.00 74 1016.5
20260831101612 83 95 2.0 14.0 0.00 0.00 0.00 72 1016.3
20260831100059 83 94 6.0 16.0 0.00 0.00 0.00 71 1016.4
20260831094551 83 131 2.0 13.0 0.00 0.00 0.00 70 1016.2
20260831093052 82 105 0.0 5.0 0.00 0.00 0.00 70 1016.1
20260831091548 82 33 0.0 7.0 0.00 0.00 0.00 71 1016.0
20260831084541 81 88 0.0 4.0 0.00 0.00 0.00 73 1015.7
20260831083039 81 101 0.0 6.0 0.00 0.00 0.00 73 1015.7
20260831081537 80 114 0.0 2.0 0.00 0.00 0.00 73 1015.7
20260831080033 79 113 0.0 0.0 0.00 0.00 0.00 71 1015.5
20260831074534 79 95 0.0 0.0 0.00 0.00 0.00 72 1015.5
20260831073029 77 332 0.0 0.0 0.00 0.00 0.00 74 1015.4
20260831071524 76 332 0.0 0.0 0.00 0.00 0.00 77 1015.2
20260831070029 74 332 0.0 0.0 0.00 0.00 0.00 81 1015.1
20260831064520 72 333 0.0 0.0 0.00 0.00 0.00 84 1015.0
20260831063019 70 332 0.0 0.0 0.00 0.00 0.00 85 1014.9
20260831061518 70 343 0.0 0.0 0.00 0.00 0.00 85 1014.8
20260831060015 69 328 0.0 0.0 0.00 0.00 0.00 84 1014.6
20260831054514 0 0.0 0.0 0.00 0.00 0.00 1014.5
20260831053006 0 0.0 0.0 0.00 0.00 0.00 1014.4
20260831051506 0 0.0 0.0 0.00 0.00 0.00 1014.2
20260831050058 0 0.0 0.0 0.00 0.00 0.00 1014.1